Weather History for Palmdale, CA

Change the Weather History Date:

Monday, June 2, 2014

  Actual Average Record
Temperature  
Mean Temperature 73 °F 72 °F  
Max Temperature 88 °F 88 °F 104 °F (1950)
Min Temperature 58 °F 56 °F 37 °F (1967)
Degree Days  
Heating Degree Days 0 1  
Month to date heating degree days 0 2  
Since 1 June heating degree days 0 2  
Since 1 July heating degree days 2331 2920  
Cooling Degree Days 8 8  
Month to date cooling degree days 17 16  
Year to date cooling degree days 236 186  
Since 1 June cooling degree days 17 16  
Growing Degree Days 25 (Base 50)    
Moisture  
Dew Point 17 °F    
Average Humidity 15    
Maximum Humidity 26    
Minimum Humidity 4    
Precipitation  
Precipitation 0.00 in 0.02 in 0.26 in (1999)
Month to date precipitation 0.00 0.03  
Year to date precipitation 3.05 5.26  
Since 1 July precipitation 5.12 8.24  
Snow  
Snow 0.00 in - - ()
Month to date snowfall 0.0  
Since 1 June snowfall 0.0  
Since 1 July snowfall 0.0  
Snow Depth 0.00 in    
Sea Level Pressure  
Sea Level Pressure 29.82 in    
Wind  
Wind Speed 14 mph (WSW)    
Max Wind Speed 32 mph    
Max Gust Speed 38 mph    
Visibility 10 miles    
Events      
T = Trace of Precipitation, MM = Missing Value Source: NWS Daily Summary

Daily Weather History Graph

Daily Weather History Graph

Search for Another Location

Airport:

Trip Planner

Search our weather history database for the weather conditions in past years. The results will help you decide how hot, cold, wet, or windy it might be!

Date:

Astronomy

Jun. 02, 2014 Rise Set
Actual Time 5:40 AM PDT 8:00 PM PDT
Civil Twilight 5:11 AM PDT 8:29 PM PDT
Nautical Twilight 4:35 AM PDT 9:05 PM PDT
Astronomical Twilight 3:56 AM PDT 9:44 PM PDT
Moon 10:05 AM PDT (6/2) 11:39 PM PDT (6/2)
Length of Visible Light 15h 18m
Length of Day
14h 20m
Waxing Crescent, 22% of the Moon is Illuminated
Jun 2
Waxing Crescent
Jun 5
First Quarter
Jun 12
Full
Jun 19
Last Quarter
Jun 27
New

Hourly Weather History & Observations

Time (PDT) Temp. Dew Point Humidity Pressure Visibility Wind Dir Wind Speed Gust Speed Precip Events Conditions
12:53 AM 64.9 °F 28.9 °F 26% 29.79 in 10.0 mi Calm Calm - N/A   Clear
1:53 AM 68.0 °F 19.0 °F 15% 29.78 in 10.0 mi Calm Calm - N/A   Clear
2:53 AM 66.9 °F 12.9 °F 12% 29.78 in 10.0 mi WSW 3.5 mph - N/A   Clear
3:53 AM 63.0 °F 15.1 °F 16% 29.78 in 10.0 mi Calm Calm - N/A   Clear
4:53 AM 64.9 °F 12.9 °F 13% 29.78 in 10.0 mi NW 3.5 mph - N/A   Clear
5:53 AM 64.0 °F 12.9 °F 14% 29.80 in 10.0 mi SW 3.5 mph - N/A   Clear
6:53 AM 66.0 °F 16.0 °F 15% 29.81 in 10.0 mi Calm Calm - N/A   Clear
7:53 AM 73.9 °F 8.1 °F 8% 29.81 in 10.0 mi SW 9.2 mph - N/A   Clear
8:14 AM 78.1 °F 3.0 °F 5% 29.89 in 10.0 mi SW 17.3 mph - N/A   Clear
8:53 AM 79.0 °F 6.1 °F 6% 29.82 in 10.0 mi WSW 10.4 mph 18.4 mph N/A   Clear
9:53 AM 82.4 °F 3.2 °F 5% 29.88 in 10.0 mi SW 21.9 mph - N/A   Clear
10:53 AM 82.4 °F 1.4 °F 4% 29.90 in 10.0 mi SSW 20.7 mph - N/A   Clear
11:53 AM 84.9 °F 9.0 °F 6% 29.83 in 10.0 mi West 16.1 mph - N/A   Clear
12:53 PM 86.0 °F 10.4 °F 6% 29.90 in 10.0 mi WSW 15.0 mph - N/A   Clear
1:53 PM 87.1 °F 7.0 °F 5% 29.81 in 10.0 mi West 23.0 mph - N/A   Clear
2:06 PM 86.0 °F 12.2 °F 6% 29.88 in 10.0 mi West 21.9 mph 28.8 mph N/A   Clear
2:53 PM 86.0 °F 21.0 °F 9% 29.80 in 10.0 mi SW 21.9 mph 29.9 mph N/A   Clear
3:53 PM 84.9 °F 24.1 °F 11% 29.81 in 10.0 mi WSW 24.2 mph 34.5 mph N/A   Clear
4:53 PM 84.0 °F 21.0 °F 10% 29.80 in 10.0 mi SW 24.2 mph 33.4 mph N/A   Clear
5:53 PM 82.0 °F 21.0 °F 10% 29.78 in 10.0 mi SW 29.9 mph 35.7 mph N/A   Clear
6:53 PM 79.0 °F 27.0 °F 15% 29.78 in 10.0 mi SW 27.6 mph - N/A   Clear
7:53 PM 75.0 °F 26.1 °F 16% 29.78 in 10.0 mi SW 28.8 mph 33.4 mph N/A   Clear
8:53 PM 71.1 °F 34.0 °F 26% 29.79 in 10.0 mi SW 19.6 mph - N/A   Clear
9:53 PM 69.1 °F 30.0 °F 23% 29.83 in 10.0 mi NW 11.5 mph - N/A   Clear
10:17 PM 69.1 °F 25.0 °F 19% 29.89 in 10.0 mi WSW 15.0 mph - N/A   Clear
10:53 PM 66.9 °F 26.1 °F 21% 29.83 in 10.0 mi Variable 4.6 mph - N/A   Clear
11:53 PM 63.0 °F 21.9 °F 21% 29.82 in 10.0 mi West 6.9 mph - N/A   Clear